Wind_Speed
13 13 13 14 13 13 13 13 14 13 13 14 14 15 16 16 17 16 16 16 17 17 17 17 17 16 16 17 17 17 16 17 18 18 18 18 17 17 17 17 17 17 17
12 12 12 13 13 14 14 14 15 14 14 14 15 16 16 17 17 17 17 17 16 16 17 18 18 18 17 18 17 17 17 17 17 18 18 18 19 19 19 19 19 18 18
11 12 12 13 14 14 14 14 14 15 15 15 16 16 16 17 17 17 16 16 16 16 17 18 19 19 19 19 18 17 18 18 18 18 18 19 19 20 20 20 20 20 19
11 11 12 13 13 14 14 14 14 15 15 15 15 15 15 16 16 17 16 15 15 16 17 17 18 19 19 19 19 19 19 19 19 19 20 20 20 21 21 21 21 22 21
10 11 12 12 13 13 13 13 13 14 14 14 15 15 15 16 16 17 16 16 16 16 17 18 19 19 19 20 21 20 21 21 20 21 21 21 22 22 22 22 22 22 22
11 11 11 12 13 13 13 12 13 13 14 14 15 15 16 16 16 16 16 16 17 17 18 18 19 19 20 20 21 22 21 22 22 22 22 23 23 23 23 23 23 23 23
11 12 13 13 13 13 12 12 13 14 14 15 15 15 15 15 15 16 16 17 17 18 18 19 20 20 20 21 21 22 22 23 23 23 23 24 25 25 25 24 24 24 24
11 12 13 13 13 13 13 13 13 14 15 15 15 15 15 15 16 17 17 18 18 18 19 19 20 21 21 22 22 23 24 25 25 25 24 24 25 26 25 25 25 25 25
12 13 13 14 14 14 14 13 14 15 15 15 15 16 15 16 16 17 17 17 18 19 19 20 21 22 22 23 24 24 25 25 25 26 26 25 25 25 26 27 27 27 27
12 12 13 13 13 14 15 14 14 14 14 15 16 17 17 17 16 17 18 19 19 19 19 20 20 22 23 24 25 25 25 25 25 25 26 26 26 27 27 28 28 28 27
12 12 13 14 14 14 14 14 14 14 14 15 15 16 16 17 17 18 18 19 20 20 20 20 21 22 23 23 24 24 24 25 25 26 26 27 28 27 28 28 28 28 28
12 13 13 12 13 13 13 14 14 13 13 14 14 15 15 16 17 18 18 18 19 20 20 21 21 22 23 23 24 24 24 25 26 27 28 28 28 28 28 29 29 29 30
13 13 12 12 13 13 13 13 14 14 14 14 14 14 15 15 16 17 18 18 19 20 21 21 22 23 24 24 24 24 25 25 26 28 28 29 29 29 30 29 29 29 30
12 12 12 12 13 13 13 13 14 14 14 14 14 14 14 15 16 16 17 18 19 19 20 21 22 24 24 25 25 25 25 25 25 26 28 29 29 30 30 30 30 30 30
12 12 11 12 13 13 13 13 13 13 13 13 14 15 15 15 16 17 17 18 19 19 20 21 22 23 24 25 25 26 26 26 25 26 27 29 29 29 30 30 30 31 31
12 11 11 12 13 13 13 13 13 14 14 15 15 16 16 17 17 17 17 18 19 19 20 21 22 23 23 24 25 25 26 26 27 27 26 28 29 30 30 30 30 31 32
12 12 11 11 11 12 12 13 14 15 15 15 15 16 16 17 17 17 18 18 18 19 19 21 22 23 23 24 25 25 26 26 26 26 26 26 28 29 30 30 30 32 33
13 12 12 12 12 12 12 13 14 14 15 15 15 15 16 16 16 17 18 17 17 19 20 21 22 23 23 24 25 25 26 27 27 27 26 26 27 28 28 29 31 31 33
14 13 13 13 13 13 13 13 13 14 14 15 16 15 16 16 16 17 17 18 18 19 20 20 20 21 22 23 24 25 26 27 27 27 27 27 27 28 29 30 31 31 32
14 14 14 13 13 13 13 14 14 15 15 15 16 16 16 16 16 17 17 18 19 19 20 20 20 21 21 22 23 23 24 25 25 26 27 27 27 27 28 29 30 31 31
15 15 15 15 15 15 15 15 16 16 16 16 17 17 17 18 18 19 19 19 20 20 20 20 20 21 21 22 22 22 23 23 23 23 24 25 26 26 27 28 29 29 30
16 16 17 17 17 16 16 16 16 17 17 18 18 18 18 19 20 20 21 21 21 21 21 21 21 21 21 22 22 22 22 22 22 23 23 24 24 24 25 26 27 29 30
18 18 18 18 17 17 16 17 17 17 17 18 18 18 19 20 20 21 22 22 22 22 22 22 21 21 21 21 22 22 22 22 22 23 24 24 24 25 26 26 27 27 27
17 17 18 17 17 17 17 18 18 18 18 19 19 19 20 20 21 22 22 23 23 23 23 23 22 21 21 21 22 22 23 23 23 23 24 25 25 26 26 26 27 27 27
17 18 18 18 18 19 19 19 19 19 19 20 20 21 21 21 22 22 23 23 23 23 24 24 23 23 22 22 23 23 23 24 23 23 24 26 26 26 26 26 27 27 27
18 19 19 20 20 20 21 21 22 22 21 21 21 22 22 22 22 22 23 22 23 23 23 23 23 23 23 23 24 24 24 24 24 24 25 26 26 26 26 27 28 28 28
Wind_Direction
273 271 269 274 272 276 276 274 267 269 270 269 265 266 264 262 260 259 259 260 258 255 252 252 255 255 256 258 257 257 258 257 257 253 251 249 250 249 249 249 249 247 245
275 271 269 271 271 273 274 272 270 266 267 267 266 267 266 265 262 260 258 259 258 255 252 254 256 256 256 257 257 260 257 258 256 254 252 249 248 248 249 250 250 249 248
276 274 270 272 271 270 271 272 271 269 265 265 266 267 265 265 264 264 260 258 256 255 257 256 255 256 255 256 255 259 258 257 255 255 252 250 248 249 249 250 249 248 247
275 276 274 273 272 271 272 275 273 270 268 269 267 266 266 266 264 266 262 260 259 256 257 257 258 258 257 255 254 258 259 257 255 253 252 250 249 249 249 249 249 249 247
276 276 278 273 273 274 272 272 269 268 271 272 271 268 268 268 268 268 264 261 261 261 259 258 258 258 258 255 256 257 259 256 255 255 253 250 250 250 250 250 250 249 247
272 277 281 276 275 275 274 271 268 268 272 275 275 274 274 272 268 265 264 265 264 264 263 263 261 259 257 257 256 256 257 254 254 255 254 251 251 250 251 251 250 249 248
274 275 277 276 273 272 274 271 271 271 273 275 277 277 275 272 267 265 266 266 266 267 266 265 264 261 260 258 258 256 256 254 254 252 253 252 251 251 250 250 250 250 250
279 278 277 275 270 269 270 272 272 274 274 274 276 276 274 270 269 267 267 268 266 266 266 267 267 265 261 258 258 256 254 254 254 253 253 252 251 250 250 249 249 250 252
288 280 278 274 270 270 275 276 274 275 275 274 274 273 273 271 271 270 269 270 270 268 267 266 265 263 262 260 260 260 257 256 255 255 254 253 252 249 249 248 250 250 252
290 285 280 275 273 275 278 281 279 278 278 277 277 275 276 275 273 272 272 271 271 269 268 268 264 263 264 264 262 260 259 259 257 255 254 253 252 251 252 252 251 250 251
289 286 281 276 273 276 279 278 277 278 278 278 280 278 277 278 275 273 273 273 270 267 267 268 267 266 266 265 263 261 259 257 258 257 255 254 253 254 254 253 253 252 252
284 283 280 276 273 276 277 276 277 277 280 282 282 283 283 281 278 276 274 273 271 267 267 268 269 270 269 267 265 262 260 260 260 258 256 253 253 254 254 255 254 253 252
286 283 280 276 278 276 278 276 276 277 279 279 282 284 285 285 283 280 277 276 273 269 269 270 272 271 271 270 267 263 263 262 262 259 257 255 254 254 254 255 256 255 253
286 286 281 275 276 279 279 277 276 279 278 280 283 285 286 287 286 283 280 278 274 271 273 274 274 272 270 269 267 265 265 263 263 262 259 258 256 255 255 254 256 255 255
293 287 284 280 280 279 276 277 278 281 282 282 283 286 288 288 288 285 282 279 276 275 275 275 275 274 272 270 268 265 265 264 264 263 261 260 257 256 256 255 256 255 255
297 293 289 284 283 281 280 281 283 285 285 285 286 287 289 288 291 288 285 282 279 276 276 274 274 275 274 272 269 267 265 264 264 265 263 259 257 256 255 256 256 255 254
295 295 296 293 290 287 283 284 284 289 291 291 293 292 291 291 290 287 286 284 282 279 278 276 275 275 275 274 271 269 267 266 267 265 264 262 259 257 255 254 254 255 254
289 292 290 291 292 288 287 291 288 290 292 293 295 297 295 293 292 291 289 286 283 282 280 279 277 275 274 275 273 272 271 269 268 266 266 265 263 260 258 257 256 256 255
287 288 285 291 296 291 286 290 292 292 293 294 296 298 298 297 297 296 294 291 290 289 288 285 283 280 279 278 277 275 273 272 269 267 266 265 264 262 261 259 258 258 257
284 286 283 287 291 290 287 289 290 291 293 296 298 300 301 301 301 301 300 297 293 291 290 289 286 285 284 283 282 280 277 275 274 270 268 267 265 264 264 261 260 260 259
285 286 285 286 286 285 285 288 289 289 289 292 295 297 298 300 299 301 302 301 298 296 294 291 288 287 286 286 284 282 279 277 276 274 272 269 268 267 266 264 262 261 260
287 286 287 286 286 285 286 288 290 290 289 290 292 295 297 299 300 301 300 298 298 298 296 293 290 289 287 286 285 284 280 278 277 276 274 272 270 270 270 269 266 264 263
284 285 288 288 287 288 291 292 293 292 292 292 295 297 298 298 298 299 298 297 297 296 296 293 291 289 288 287 286 285 283 280 279 277 274 272 270 271 272 270 268 267 267
285 285 286 287 287 289 291 293 293 293 293 293 295 297 298 298 298 298 297 297 297 296 296 295 292 290 289 288 287 285 284 283 280 278 275 272 271 271 268 269 267 267 268
284 282 285 287 289 291 292 292 292 292 293 294 295 295 296 297 298 298 297 297 297 296 296 296 295 292 289 288 288 286 286 285 281 279 277 275 273 271 268 268 265 265 266
284 284 285 286 288 290 291 291 291 290 291 292 294 295 296 298 298 297 296 295 295 295 296 295 293 293 291 289 288 288 287 287 285 282 280 277 275 273 272 268 265 264 264
Height
5838 5838 5838 5839 5840 5840 5840 5841 5841 5842 5842 5843 5843 5844 5845 5845 5845 5846 5847 5848 5848 5849 5851 5852 5853 5854 5855 5856 5857 5858 5858 5859 5860 5861 5863 5864 5865 5867 5868 5870 5871 5873 5874
5835 5835 5835 5836 5836 5837 5837 5837 5838 5838 5838 5839 5840 5840 5841 5841 5842 5843 5843 5844 5844 5845 5846 5847 5848 5850 5851 5852 5853 5853 5854 5855 5856 5857 5858 5860 5861 5863 5864 5866 5867 5869 5871
5832 5832 5832 5832 5833 5833 5833 5833 5834 5834 5834 5835 5835 5836 5836 5837 5838 5839 5839 5840 5840 5841 5842 5843 5844 5845 5846 5847 5848 5849 5850 5850 5851 5852 5854 5855 5857 5858 5860 5861 5863 5865 5866
5829 5829 5829 5829 5829 5830 5830 5830 5830 5830 5830 5831 5831 5831 5832 5833 5834 5834 5835 5836 5836 5836 5837 5838 5838 5840 5841 5842 5843 5844 5845 5846 5847 5848 5849 5850 5852 5853 5855 5857 5859 5860 5862
5826 5825 5825 5825 5826 5826 5826 5826 5826 5826 5827 5827 5828 5828 5828 5829 5829 5830 5831 5831 5832 5832 5833 5833 5834 5834 5835 5837 5838 5839 5840 5841 5842 5843 5844 5846 5847 5849 5850 5852 5854 5855 5857
5822 5822 5822 5822 5822 5822 5822 5822 5823 5822 5823 5823 5824 5824 5824 5825 5825 5825 5826 5826 5827 5827 5828 5828 5829 5830 5830 5831 5832 5833 5834 5835 5836 5838 5839 5840 5842 5843 5845 5847 5848 5850 5852
5819 5819 5819 5819 5819 5819 5819 5819 5819 5819 5819 5819 5820 5820 5820 5820 5821 5821 5821 5822 5822 5822 5822 5823 5824 5824 5825 5826 5827 5828 5829 5829 5831 5832 5833 5835 5836 5837 5839 5841 5843 5845 5847
5816 5816 5816 5816 5816 5816 5816 5816 5815 5815 5815 5815 5815 5815 5816 5817 5816 5816 5816 5816 5816 5816 5817 5818 5818 5818 5819 5820 5821 5822 5823 5824 5825 5826 5827 5829 5830 5832 5832 5834 5837 5839 5841
5813 5813 5813 5813 5813 5813 5812 5812 5812 5812 5811 5811 5811 5811 5811 5811 5811 5811 5811 5811 5810 5811 5811 5812 5812 5813 5813 5814 5815 5816 5817 5817 5819 5820 5821 5822 5824 5825 5827 5829 5831 5833 5835
5810 5810 5810 5809 5809 5809 5809 5808 5808 5807 5807 5807 5806 5806 5806 5806 5806 5805 5805 5805 5805 5805 5806 5806 5807 5807 5808 5808 5809 5809 5810 5811 5812 5813 5815 5816 5818 5819 5821 5822 5824 5826 5828
5808 5807 5806 5806 5806 5805 5805 5804 5804 5803 5803 5803 5802 5801 5801 5801 5800 5800 5799 5799 5799 5799 5800 5800 5801 5801 5801 5802 5803 5803 5803 5805 5805 5806 5808 5809 5811 5812 5814 5816 5817 5819 5821
5805 5804 5803 5802 5802 5801 5801 5801 5800 5800 5799 5798 5798 5797 5796 5795 5795 5794 5794 5793 5793 5794 5794 5795 5795 5795 5795 5796 5796 5797 5797 5798 5798 5799 5801 5802 5804 5805 5807 5809 5810 5812 5814
5801 5800 5799 5799 5799 5798 5798 5797 5797 5796 5795 5794 5793 5793 5792 5791 5790 5789 5789 5788 5788 5788 5789 5789 5789 5789 5789 5789 5789 5790 5791 5791 5792 5792 5794 5795 5796 5797 5799 5801 5802 5804 5806
5798 5797 5796 5796 5796 5795 5794 5794 5793 5792 5791 5790 5789 5788 5788 5787 5786 5784 5784 5783 5783 5783 5783 5783 5783 5783 5783 5783 5783 5783 5784 5784 5785 5785 5786 5787 5788 5789 5791 5792 5794 5796 5798
5795 5794 5793 5793 5792 5792 5791 5790 5790 5789 5788 5787 5786 5785 5784 5783 5781 5780 5779 5778 5778 5778 5778 5777 5777 5777 5776 5776 5776 5776 5777 5777 5777 5778 5778 5779 5780 5781 5783 5784 5786 5787 5789
5793 5792 5791 5790 5790 5789 5789 5788 5787 5786 5785 5784 5782 5781 5780 5778 5777 5775 5774 5773 5773 5773 5772 5772 5771 5770 5770 5770 5769 5769 5769 5769 5770 5770 5770 5771 5772 5773 5774 5776 5778 5779 5781
5790 5789 5788 5787 5787 5786 5785 5784 5783 5782 5781 5780 5778 5777 5775 5774 5773 5771 5770 5769 5768 5767 5766 5766 5765 5764 5764 5763 5762 5762 5762 5762 5762 5763 5763 5763 5764 5765 5766 5767 5769 5770 5772
5787 5786 5786 5785 5784 5783 5782 5781 5780 5778 5777 5776 5775 5773 5771 5770 5768 5767 5765 5764 5763 5762 5761 5760 5759 5758 5758 5757 5756 5755 5755 5755 5755 5755 5755 5756 5756 5757 5758 5759 5760 5761 5763
5784 5784 5783 5782 5781 5780 5779 5778 5776 5775 5773 5772 5771 5769 5768 5766 5764 5763 5761 5759 5758 5757 5756 5754 5753 5752 5751 5750 5749 5748 5748 5747 5747 5747 5747 5748 5748 5749 5750 5751 5752 5753 5754
5781 5780 5779 5778 5777 5776 5775 5774 5773 5771 5770 5768 5767 5765 5764 5762 5760 5758 5757 5755 5753 5751 5750 5749 5748 5746 5745 5744 5743 5742 5741 5740 5740 5740 5740 5740 5741 5741 5742 5743 5744 5744 5745
5777 5776 5775 5774 5773 5772 5771 5770 5769 5767 5766 5764 5763 5761 5760 5758 5756 5754 5752 5750 5748 5746 5745 5743 5742 5741 5739 5738 5737 5735 5735 5734 5733 5733 5733 5733 5733 5734 5734 5734 5735 5736 5737
5773 5772 5771 5770 5769 5768 5767 5765 5764 5762 5761 5760 5759 5757 5755 5753 5751 5749 5747 5745 5743 5741 5740 5738 5737 5735 5734 5732 5731 5729 5728 5727 5727 5727 5726 5726 5726 5726 5726 5726 5727 5727 5728
5768 5768 5767 5765 5764 5763 5762 5761 5759 5758 5757 5755 5754 5752 5750 5748 5746 5744 5742 5740 5738 5736 5734 5733 5731 5730 5728 5727 5725 5724 5722 5721 5720 5719 5719 5719 5719 5719 5719 5719 5719 5719 5719
5763 5762 5761 5760 5759 5758 5757 5756 5754 5753 5752 5750 5749 5747 5745 5743 5741 5739 5736 5734 5732 5730 5728 5726 5725 5723 5722 5720 5719 5717 5716 5714 5714 5713 5712 5712 5712 5711 5711 5711 5711 5711 5712
5758 5757 5756 5755 5754 5753 5752 5750 5749 5748 5746 5745 5743 5741 5739 5737 5735 5733 5731 5728 5726 5724 5722 5720 5719 5717 5715 5714 5712 5711 5710 5708 5707 5707 5705 5704 5704 5703 5703 5703 5703 5703 5703
5753 5752 5751 5750 5749 5747 5746 5744 5743 5742 5740 5739 5737 5735 5733 5731 5729 5727 5724 5722 5720 5718 5716 5714 5712 5710 5709 5707 5706 5704 5703 5701 5700 5700 5698 5697 5696 5695 5695 5696 5695 5695 5695